Flag for Mexico Weather past 2 weeks in Playa del Carmen, Quintana Roo, Mexico

Now
86 °F

Passing clouds.


Feels Like: 95 °F
Forecast: N/A
Wind: 7 mph from Southeast

Location: Cozumel Civ / Mil

Current Time: Sep 2, 2014 at 4:57:38 PM

Latest Report: Sep 2, 2014 at 3:45 PM


Visibility: 8 mi

Pressure: 29.94 "Hg

Humidity: 70%

Dew point: 75 °F

Location of Playa del CarmenLocation

Historic Weather in Playa del Carmen — Graph

°F

Playa del Carmen temperature yesterday

Maximum temperature yesterday: 84 °F (at 9:43 AM)
Minimum temperature yesterday: 73 °F (at 12:47 AM)
Average temperature yesterday: 80 °F

Past Weeks' High & Low Weather Summary

 TemperatureHumidityPressure
High97 °F (Aug 20, 10:46 AM)100% (Aug 19, 1:41 AM)30.09 "Hg (Aug 19, 1:41 AM)
Low70 °F (Aug 19, 3:48 AM)52% (Aug 27, 3:55 PM)29.78 "Hg (Aug 25, 6:51 PM)
Average80 °F88%29.93 "Hg
* Reported Aug 18 3:48 PM — Sep 2 3:45 PM, Playa del Carmen, Weather by CustomWeather, © 2014

Note: Actual official high and low records may vary slightly from our data, if they occured in-between our weather recording intervals... More about our weather records

Advertising

Playa del Carmen weather history for previous 24 hours

 ConditionsComfort  
Time TempWeatherWind HumidityBarometerVisibility
3:45 PM
Sep 2
86 °FPassing clouds.7 mph70%29.94 "Hg8 mi
2:50 PM86 °FPassing clouds.7 mph66%29.94 "Hg8 mi
1:53 PM88 °FPartly sunny.14 mph66%29.96 "Hg8 mi
12:51 PM88 °FPartly sunny.8 mph66%29.96 "Hg8 mi
11:55 AM88 °FPartly sunny.10 mph66%30.00 "Hg8 mi
10:44 AM86 °FPartly sunny.9 mph75%30.01 "Hg8 mi
9:48 AM84 °FPartly sunny.12 mph79%30.02 "Hg8 mi
8:45 AM81 °FPartly sunny.7 mph89%29.99 "Hg8 mi
7:47 AM77 °FPassing clouds.3 mph100%29.97 "Hg8 mi
6:41 AM73 °FPassing clouds.5 mph100%29.93 "Hg7 mi
5:45 AM73 °FPassing clouds.No wind100%29.95 "Hg7 mi
4:42 AM75 °FPassing clouds.3 mph100%29.94 "Hg7 mi
3:55 AM75 °FPartly cloudy.3 mph100%29.97 "Hg7 mi
2:40 AM75 °FPartly cloudy.5 mph100%29.96 "Hg7 mi
1:55 AM75 °FPartly cloudy.No wind100%29.97 "Hg7 mi
12:52 AM75 °FPartly cloudy.No wind100%29.96 "Hg7 mi
11:46 PM
Sep 1
77 °FMostly cloudy.5 mph100%29.99 "Hg7 mi
10:42 PM79 °FMostly cloudy.6 mph94%30.01 "Hg7 mi
9:42 PM79 °FPartly cloudy.5 mph94%30.02 "Hg7 mi
8:44 PM77 °FPartly cloudy.3 mph100%29.98 "Hg7 mi
7:59 PM77 °FBroken clouds.3 mph100%29.96 "Hg7 mi
6:50 PM81 °FBroken clouds.8 mph89%29.90 "Hg7 mi
5:56 PM79 °FBroken clouds.10 mph94%29.92 "Hg8 mi
4:46 PM84 °FMostly cloudy.12 mph74%29.94 "Hg7 mi
Weather by CustomWeather, © 2014

See weather overviewHow to use our weather pages